[[{"header":{"parameterUnit":"m.s-1","parameterCategory":1,"la1":30.2991,"la2":30.254,"lo1":-89.0895,"lo2":-89.0444,"dy":0.0017,"dx":0.0017,"nx":28,"ny":28,"refTime":"2024-06-21T21:00:00:Z","depth":0,"parameterNumber":2,"parameterNumberName":"U-component_of_WINDS"},"data":[0,0,0,0,0,0,0,0,0,0,0,0,0,0,0,0,0,0,0,0,0,0,0,0,0,0,0,0,0,0,0,0,0,0,0,0,0,0,0,0,0,0,0,0,0,0,0,0,0,0,0,0,0,0,0,0,0,0,2.0748,2.0749,0,2.0832,2.0833,2.0834,2.0822,2.0821,2.0819,2.0818,2.0904,2.0907,2.0911,0,0,0,0,0,0,0,0,0,0,0,0,0,2.0575,2.0579,2.0748,2.0749,2.075,2.0831,2.0833,2.0834,2.0822,2.082,2.0819,2.0817,2.0902,2.0907,2.0911,0,0,0,0,0,0,0,0,0,0,0,0,0,2.0654,2.058,2.0747,2.0754,2.0755,2.0831,2.0833,2.0834,2.0823,2.082,2.0818,2.0816,2.0901,2.0906,2.0912,2.0986,0,0,2.0928,2.093,0,0,0,0,0,0,0,0,2.0649,2.066,2.0752,2.0754,2.0755,2.0814,2.0803,2.0885,2.0823,2.0797,2.0818,2.0815,2.0876,2.0883,2.0903,2.099,2.0994,2.0928,2.0932,2.0934,2.0936,0,0,0,0,0,0,0,2.0644,2.0656,2.0781,2.0753,2.0755,2.0752,2.0761,2.0819,2.0847,2.0799,2.0798,2.0809,2.0876,2.0898,2.0905,2.0995,2.0928,2.0933,2.0936,2.0938,2.1145,2.1147,0,0,0,0,0,0,2.0637,2.0652,2.0778,2.0783,2.0696,2.0757,2.0766,2.0797,2.0846,2.0852,2.081,2.0808,2.089,2.0899,2.0908,2.0996,2.0934,2.0939,2.0942,2.1143,2.1145,2.1148,0,0,0,0,0,0,2.0633,2.0648,2.0775,2.0718,2.0733,2.0762,2.0797,2.08,2.0822,2.0855,2.086,2.0828,2.0889,2.0901,2.0966,2.0999,2.0941,2.0946,2.114,2.1144,2.1147,2.1175,0,0,0,0,0,0,2.0628,2.0647,2.0677,2.0718,2.0736,2.0832,2.0799,2.0803,2.0831,2.0829,2.0872,2.0877,2.0888,2.0958,2.0972,2.1006,2.095,2.1137,2.1142,2.1146,2.1171,2.1179,2.1186,0,0,0,0,0,2.0622,2.0682,2.0678,2.0693,2.0774,2.0834,2.0845,2.0855,2.0834,2.0863,2.0884,2.0876,2.0994,2.0965,2.098,2.1016,2.1135,2.114,2.1145,2.1168,2.1178,2.1186,0,0,0,0,0,0,2.0644,2.0688,2.0684,2.0759,2.0793,2.0832,2.0869,2.0866,2.0906,2.0902,2.0914,2.0924,2.099,2.101,2.0977,2.109,2.1061,2.107,2.1074,2.1083,2.109,2.1083,2.0955,0,0,0,0,0,2.0657,2.0703,2.0739,2.0801,2.0819,2.0841,2.0868,2.0873,2.0909,2.0923,2.0949,2.0983,2.1027,2.1057,2.11,2.1175,2.1182,2.1207,2.1214,2.122,2.1226,2.1264,2.1274,2.1165,2.1165,2.1164,0,0,2.0685,2.0715,2.0743,2.0806,2.0833,2.0879,2.0853,2.0904,2.0937,2.0931,2.0993,2.1013,2.1053,2.1122,2.1155,2.1141,2.1258,2.1226,2.123,2.1234,2.127,2.1281,2.129,2.1168,2.1167,2.1167,0,0,2.076,2.0788,2.0841,2.0869,2.0909,2.0924,2.0936,2.0976,2.0989,2.1052,2.1047,2.1087,2.1165,2.1192,2.1216,2.1298,2.1291,2.1312,2.1349,2.1386,2.1394,2.1402,2.1429,2.1438,2.1319,2.1319,2.1319,0,2.0789,2.0859,2.087,2.092,2.0947,2.0942,2.0995,2.1021,2.1074,2.1092,2.1077,2.1172,2.1198,2.1273,2.1292,2.1313,2.1326,2.1306,2.1392,2.14,2.1407,2.1433,2.1443,2.1321,2.1321,2.132,2.132,0,2.0892,2.094,2.0979,2.1028,2.106,2.1112,2.1129,2.1159,2.1161,2.1177,2.124,2.1271,2.1319,2.1338,2.1341,2.1412,2.1402,2.139,2.1361,2.142,2.1443,2.1454,2.1324,2.1323,2.1322,2.1322,0,0,2.0982,2.1036,2.105,2.1071,2.1115,2.1152,2.1203,2.1249,2.1273,2.131,2.1351,2.1415,2.1403,2.143,2.1437,2.1469,2.1529,2.1452,2.1453,2.1463,2.1606,2.1613,2.1625,2.1525,2.1527,2.1529,2.1602,0,2.1058,2.1148,2.1158,2.1237,2.128,2.1275,2.1319,2.135,2.1366,2.1404,2.1421,2.1465,2.1447,2.1463,2.1496,2.1515,2.1557,2.151,2.1562,2.1564,2.155,2.1638,2.1646,2.1713,2.1611,2.1613,2.1614,0,2.116,2.1197,2.128,2.1316,2.1334,2.1373,2.1415,2.1452,2.1487,2.1495,2.1525,2.1526,2.1577,2.1547,2.1616,2.1584,2.1606,2.1618,2.1621,2.1625,2.1591,2.1641,2.1735,2.1744,2.163,2.1628,2.1627,0,2.1213,2.1285,2.1343,2.1362,2.1406,2.1433,2.1452,2.1484,2.1511,2.1547,2.1564,2.1607,2.1629,2.1662,2.1674,2.1652,2.1741,2.1713,2.1748,2.1747,2.1765,2.1764,2.1862,2.1784,2.1784,2.1783,2.1783,0,2.1296,2.1346,2.1368,2.1403,2.1459,2.147,2.1524,2.1542,2.157,2.1608,2.1608,2.1644,2.1659,2.1696,2.1706,2.176,2.1771,2.1778,2.178,2.1777,2.1776,2.179,2.1785,2.1786,2.1786,2.1785,2.1785,0,2.1365,2.1382,2.1444,2.148,2.1489,2.1529,2.1558,2.1592,2.1607,2.1655,2.1666,2.1689,2.1733,2.1749,2.1803,2.181,2.1871,2.187,2.1859,2.1859,2.1892,2.1887,2.2001,2.2015,2.193,2.193,2.1931,0,2.1416,2.1454,2.1493,2.1518,2.1538,2.1579,2.1605,2.1617,2.1644,2.1685,2.1713,2.1757,2.1792,2.1863,2.1884,2.1924,2.1923,2.1959,2.1929,2.1924,2.192,2.1916,2.1919,2.1965,2.1965,2.1966,2.1967,0,2.1503,2.1508,2.1546,2.1587,2.1618,2.165,2.1682,2.1702,2.1719,2.1749,2.1794,2.1821,2.1875,2.1917,2.1959,2.1978,2.1974,2.1976,2.1986,2.1982,2.1973,2.1976,2.1872,2.1973,2.1973,2.1972,2.1972,2.1972,2.1562,2.1595,2.1626,2.1668,2.1693,2.1721,2.1754,2.1772,2.1809,2.1853,2.1858,2.1906,2.1937,2.1992,2.2013,2.2049,2.2039,2.2054,2.2057,2.206,2.2061,2.1969,2.2057,2.2057,2.2057,2.2057,2.2057,0,2.1647,2.1666,2.1705,2.1748,2.178,2.1774,2.1808,2.1835,2.1876,2.1906,2.194,2.199,2.2031,2.2055,2.2095,2.2119,2.2119,2.213,2.2127,2.2131,2.2069,2.2055,2.2129,2.2129,2.2129,2.2129,2.2129,2.2129,2.1694,2.1748,2.1757,2.1823,2.1842,2.1888,2.1907,2.1933,2.1956,2.2012,2.2045,2.2061,2.2087,2.2129,2.2166,2.2172,2.2185,2.2197,2.2201,2.2143,2.2135,2.2128,2.2115,2.22,2.22,2.2259,2.226,2.226]},{"header":{"parameterUnit":"m.s-1","parameterCategory":1,"la1":30.2991,"la2":30.254,"lo1":-89.0895,"lo2":-89.0444,"dy":0.0017,"dx":0.0017,"nx":28,"ny":28,"refTime":"2024-06-21T21:00:00:Z","depth":0,"parameterNumber":3,"parameterNumberName":"V-component_of_WINDS"},"data":[0,0,0,0,0,0,0,0,0,0,0,0,0,0,0,0,0,0,0,0,0,0,0,0,0,0,0,0,0,0,0,0,0,0,0,0,0,0,0,0,0,0,0,0,0,0,0,0,0,0,0,0,0,0,0,0,0,0,3.2082,3.2083,0,3.212,3.2121,3.2121,3.207,3.2068,3.2067,3.2065,3.21,3.2103,3.2105,0,0,0,0,0,0,0,0,0,0,0,0,0,3.196,3.1963,3.2082,3.2083,3.2083,3.212,3.2121,3.2121,3.207,3.2068,3.2066,3.2064,3.2099,3.2103,3.2106,0,0,0,0,0,0,0,0,0,0,0,0,0,3.2007,3.1964,3.2082,3.2062,3.2061,3.212,3.2121,3.2121,3.2071,3.2068,3.2065,3.2063,3.2098,3.2102,3.2106,3.2186,0,0,3.2118,3.212,0,0,0,0,0,0,0,0,3.2005,3.2012,3.2065,3.2064,3.2062,3.2088,3.2091,3.2143,3.2072,3.2067,3.2065,3.2062,3.2098,3.2102,3.2115,3.2187,3.2189,3.2119,3.2121,3.2123,3.2124,0,0,0,0,0,0,0,3.2001,3.201,3.2097,3.2065,3.2064,3.205,3.2054,3.21,3.2097,3.2067,3.2064,3.2069,3.2097,3.2111,3.2115,3.2189,3.2119,3.2122,3.2125,3.2126,3.2326,3.2329,0,0,0,0,0,0,3.2001,3.2007,3.2096,3.2098,3.2026,3.2054,3.2058,3.2082,3.2097,3.2096,3.2071,3.2067,3.2106,3.2111,3.2116,3.2209,3.2123,3.2126,3.2129,3.2323,3.2327,3.233,0,0,0,0,0,0,3.1999,3.201,3.2094,3.2052,3.2062,3.2059,3.2087,3.2085,3.2099,3.21,3.2099,3.2087,3.2104,3.2111,3.2169,3.221,3.2128,3.2132,3.232,3.2325,3.2329,3.2396,0,0,0,0,0,0,3.1995,3.2009,3.204,3.2053,3.2064,3.2147,3.2089,3.2087,3.2106,3.21,3.2114,3.2114,3.2102,3.2163,3.2173,3.2214,3.2135,3.2316,3.2322,3.2327,3.239,3.2402,3.2412,0,0,0,0,0,3.1991,3.2057,3.2042,3.2053,3.2104,3.215,3.2156,3.2143,3.211,3.214,3.2141,3.2113,3.2204,3.2169,3.218,3.2223,3.2314,3.232,3.2327,3.2385,3.24,3.2412,0,0,0,0,0,0,3.2048,3.2059,3.2042,3.2115,3.2132,3.2141,3.218,3.2159,3.2185,3.2178,3.2159,3.2162,3.2224,3.2229,3.219,3.2299,3.2253,3.2262,3.2294,3.2308,3.2319,3.2316,3.2138,0,0,0,0,0,3.207,3.2108,3.2114,3.2177,3.2187,3.2182,3.2202,3.219,3.2206,3.2213,3.2218,3.2234,3.2266,3.2287,3.2316,3.2391,3.2392,3.2425,3.2436,3.2445,3.2453,3.2491,3.2505,3.2352,3.2352,3.2352,0,0,3.2114,3.2124,3.2149,3.2189,3.2201,3.224,3.2188,3.2232,3.2259,3.2219,3.2274,3.2278,3.2294,3.236,3.239,3.2366,3.2496,3.2454,3.2461,3.2464,3.2499,3.2514,3.2527,3.2356,3.2356,3.2355,0,0,3.2213,3.2225,3.2279,3.2292,3.2311,3.2307,3.232,3.2332,3.2334,3.2389,3.2359,3.2391,3.2447,3.2459,3.2473,3.2576,3.2551,3.2586,3.2644,3.2681,3.2693,3.2704,3.2739,3.2753,3.2594,3.2594,3.2594,0,3.2265,3.2323,3.2308,3.2354,3.2371,3.2338,3.239,3.2403,3.2431,3.2443,3.2417,3.2485,3.2494,3.2562,3.2587,3.26,3.2612,3.2584,3.2693,3.2704,3.2713,3.2747,3.276,3.2598,3.2598,3.2597,3.2597,0,3.2384,3.2425,3.2466,3.2494,3.2516,3.2565,3.2556,3.258,3.2566,3.2564,3.2619,3.2629,3.2659,3.2674,3.2661,3.274,3.2725,3.2697,3.2649,3.2732,3.2763,3.2776,3.2604,3.2602,3.2601,3.26,0,0,3.2521,3.254,3.2555,3.2567,3.2585,3.2616,3.2662,3.2692,3.2713,3.2732,3.2769,3.2817,3.2791,3.2806,3.2794,3.2827,3.2906,3.2794,3.2794,3.2813,3.2991,3.3012,3.3027,3.289,3.2892,3.2894,3.299,0,3.2619,3.2701,3.2689,3.2767,3.2803,3.2771,3.2811,3.2826,3.2825,3.2854,3.2853,3.2887,3.285,3.2859,3.289,3.289,3.2941,3.2883,3.2922,3.2924,3.2919,3.3044,3.3066,3.3156,3.3002,3.3004,3.3005,0,3.2745,3.277,3.2852,3.2863,3.2878,3.2915,3.2941,3.297,3.2985,3.2982,3.2999,3.298,3.3025,3.2978,3.3038,3.2999,3.3014,3.3016,3.3019,3.3021,3.2969,3.3048,3.3184,3.3197,3.3025,3.3023,3.3022,0,3.2835,3.2889,3.2944,3.2956,3.2971,3.2997,3.3004,3.3017,3.3035,3.3058,3.3069,3.3096,3.3111,3.3132,3.312,3.3087,3.3181,3.3134,3.3179,3.3179,3.3199,3.3198,3.3339,3.3212,3.3211,3.3211,3.3211,0,3.2945,3.2996,3.2985,3.3019,3.3074,3.3059,3.3114,3.3117,3.3129,3.3161,3.3135,3.3166,3.315,3.3179,3.317,3.322,3.3227,3.3225,3.3222,3.3227,3.3227,3.3236,3.3229,3.3215,3.3214,3.3213,3.3212,0,3.3054,3.3049,3.3107,3.3117,3.312,3.3161,3.3168,3.3199,3.3196,3.3238,3.3247,3.3242,3.3276,3.3266,3.3302,3.3296,3.3359,3.3348,3.3354,3.3351,3.3396,3.3392,3.3546,3.3565,3.3427,3.3429,3.343,0,3.3125,3.3163,3.3177,3.3198,3.3207,3.3241,3.326,3.3246,3.3266,3.3286,3.3314,3.3345,3.3369,3.3424,3.3422,3.3449,3.3438,3.3491,3.3442,3.3446,3.3438,3.3435,3.3438,3.35,3.3502,3.3503,3.3504,0,3.3249,3.3245,3.3274,3.3302,3.3326,3.3347,3.3365,3.3383,3.337,3.3394,3.3429,3.3447,3.3484,3.3514,3.3539,3.3544,3.3522,3.352,3.3531,3.3536,3.3537,3.3536,3.3379,3.3516,3.3515,3.3514,3.3513,3.3513,3.334,3.3373,3.3387,3.342,3.3433,3.345,3.348,3.3481,3.3509,3.3539,3.3528,3.3567,3.358,3.361,3.3619,3.3648,3.3628,3.3645,3.3649,3.3653,3.3658,3.3534,3.3653,3.3652,3.3652,3.3652,3.3651,0,3.3463,3.3471,3.3501,3.3528,3.3553,3.3531,3.355,3.3572,3.3607,3.3621,3.3646,3.3684,3.3713,3.3715,3.3742,3.3765,3.3755,3.3772,3.377,3.3771,3.3676,3.3662,3.378,3.378,3.378,3.3779,3.3779,3.3779,3.3529,3.3582,3.3579,3.3637,3.3644,3.3683,3.3695,3.3711,3.3722,3.3767,3.3791,3.3792,3.3801,3.3828,3.3854,3.3853,3.3864,3.3885,3.388,3.3791,3.3778,3.3766,3.3753,3.3888,3.3888,3.3973,3.3974,3.3974]}]]